KG2V Weather Reports


time (UTC)temp
F
wind
direction
speed
knots
gust
knots
rain 1hr
in
rain 24hr
in
rain mn
in
humidity
%
barometer
mb
20260504204747 74 253 3.5 3.5 0.00 0.00 0.00 39 999.0
20260504204245 74 211 2.6 3.5 0.00 0.00 0.00 36 999.1
20260504203744 74 157 4.3 6.1 0.00 0.00 0.00 36 999.1
20260504203241 74 193 3.5 5.2 0.00 0.00 0.00 37 999.1
20260504202741 74 242 0.9 1.7 0.00 0.00 0.00 38 999.4
20260504202238 74 207 2.6 5.2 0.00 0.00 0.00 39 999.1
20260504201735 74 285 2.6 3.5 0.00 0.00 0.00 39 999.1
20260504201232 73 190 4.3 6.1 0.00 0.00 0.00 39 999.4
20260504200730 73 274 3.5 5.2 0.00 0.00 0.00 40 999.4
20260504200226 73 207 7.0 8.7 0.00 0.00 0.00 38 999.3
20260504195722 74 208 8.7 11.3 0.00 0.00 0.00 38 999.4
20260504195218 74 215 6.1 8.7 0.00 0.00 0.00 38 999.5
20260504194716 73 192 2.6 2.6 0.00 0.00 0.00 41 999.6
20260504194212 73 213 6.1 7.8 0.00 0.00 0.00 42 999.7
20260504193708 73 196 4.3 7.8 0.00 0.00 0.00 40 999.9
20260504193206 74 226 3.5 5.2 0.00 0.00 0.00 40 999.8
20260504192704 73 244 3.5 5.2 0.00 0.00 0.00 40 999.9
20260504192201 73 224 2.6 3.5 0.00 0.00 0.00 40 1000.0
20260504191700 73 183 3.5 5.2 0.00 0.00 0.00 39 1000.0
20260504191156 73 247 2.6 3.5 0.00 0.00 0.00 40 1000.2
20260504190652 72 190 4.3 7.8 0.00 0.00 0.00 40 1000.6
20260504190149 73 223 5.2 7.0 0.00 0.00 0.00 39 1000.3
20260504185645 73 272 1.7 3.5 0.00 0.00 0.00 41 1000.2
20260504185142 73 268 1.7 2.6 0.00 0.00 0.00 41 1000.1
20260504184638 73 242 2.6 3.5 0.00 0.00 0.00 42 1000.5
20260504184133 72 189 2.6 3.5 0.00 0.00 0.00 43 1000.5
20260504183630 72 274 4.3 5.2 0.00 0.00 0.00 44 1000.7
20260504183128 72 242 2.6 3.5 0.00 0.00 0.00 42 1000.6
20260504182625 72 225 7.0 8.7 0.00 0.00 0.00 44 1000.8
20260504182123 72 205 5.2 7.8 0.00 0.00 0.00 43 1000.8
20260504181620 71 261 1.7 1.7 0.00 0.00 0.00 46 1000.9
20260504181117 71 253 3.5 5.2 0.00 0.00 0.00 46 1000.9
20260504180617 72 183 5.2 7.8 0.00 0.00 0.00 45 1000.8
20260504180115 71 200 1.7 2.6 0.00 0.00 0.00 46 1000.9
20260504175612 71 218 1.7 1.7 0.00 0.00 0.00 49 1000.9
20260504175108 70 253 3.5 3.5 0.00 0.00 0.00 47 1001.2
20260504174607 71 222 5.2 6.1 0.00 0.00 0.00 45 1000.9
20260504174103 70 224 3.5 5.2 0.00 0.00 0.00 46 1001.1
20260504173559 69 164 2.6 2.6 0.00 0.00 0.00 46 1000.9
20260504173058 70 202 6.1 7.8 0.00 0.00 0.00 47 1001.2
20260504172553 69 226 1.7 2.6 0.00 0.00 0.00 50 1001.0
20260504172050 70 192 1.7 2.6 0.00 0.00 0.00 50 1001.1
20260504171547 70 202 5.2 8.7 0.00 0.00 0.00 47 1001.2
20260504171044 69 208 0.9 0.9 0.00 0.00 0.00 47 1001.2
20260504170539 68 264 3.5 5.2 0.00 0.00 0.00 48 1001.1
20260504150923 63 222 3.5 5.2 0.00 0.00 0.00 53 1002.2
20260504150420 63 223 0.9 1.7 0.00 0.00 0.00 52 1002.2
20260504140847 61 241 5.2 6.1 0.00 0.00 0.00 53 1002.3
20260504140343 60 216 4.3 6.1 0.00 0.00 0.00 53 1002.3
20260504130812 59 266 1.7 3.5 0.00 0.00 0.00 54 1002.7
20260504130308 58 211 3.5 6.1 0.00 0.00 0.00 55 1002.7
20260504120231 51 174 0.0 0.9 0.00 0.00 0.00 65 1003.2
20260504110659 50 194 0.0 0.9 0.00 0.00 0.00 65 1003.0
20260504110155 50 153 0.0 0.0 0.00 0.00 0.00 66 1003.0
20260504100119 52 201 0.9 0.9 0.00 0.00 0.00 59 1002.6
20260504081512 51 197 1.7 1.7 0.00 0.00 0.00 59 1003.3
20260504081008 51 183 1.7 2.6 0.00 0.00 0.00 59 1003.4
20260504080504 51 218 1.7 2.6 0.00 0.00 0.00 60 1003.5
20260504050311 47 179 0.0 0.0 0.00 0.00 0.00 66 1004.7
20260504045809 48 179 0.0 0.0 0.00 0.00 0.00 67 1004.6
20260504045308 48 179 0.0 0.0 0.00 0.00 0.00 65 1004.7
20260504044806 49 179 0.0 0.0 0.00 0.00 0.00 64 1004.8
20260504044303 49 179 0.0 0.0 0.00 0.00 0.00 63 1004.9
20260504043800 50 179 0.0 0.0 0.00 0.00 0.00 62 1004.7
20260504043257 49 178 0.0 0.9 0.00 0.00 0.00 62 1004.6
20260504042755 49 183 0.0 0.9 0.00 0.00 0.00 63 1004.8
20260504042251 50 173 0.0 0.0 0.00 0.00 0.00 62 1004.6
20260504041747 50 174 0.0 0.0 0.00 0.00 0.00 60 1004.5
20260504041243 50 187 0.0 0.0 0.00 0.00 0.00 60 1004.7
20260504040739 50 186 0.0 0.0 0.00 0.00 0.00 62 1004.6
20260504040237 50 176 0.0 0.0 0.00 0.00 0.00 62 1004.7
20260504035733 51 181 0.0 0.0 0.00 0.00 0.00 60 1004.9
20260504035231 51 181 0.0 0.0 0.00 0.00 0.00 60 1004.7
20260504034729 51 179 0.0 0.0 0.00 0.00 0.00 60 1004.7
20260504034226 52 186 0.0 0.0 0.00 0.00 0.00 58 1004.8
20260504033723 52 173 0.0 0.9 0.00 0.00 0.00 58 1004.6
20260504033220 53 171 0.0 0.0 0.00 0.00 0.00 57 1004.8
20260504032712 53 199 0.9 0.9 0.00 0.00 0.00 55 1004.8
20260504032209 53 192 0.9 0.9 0.00 0.00 0.00 55 1004.6
20260504031705 53 193 2.6 2.6 0.00 0.00 0.00 54 1004.7
20260504031203 54 220 1.7 1.7 0.00 0.00 0.00 55 1004.8
20260504030658 54 194 0.9 0.9 0.00 0.00 0.00 54 1004.8
20260504030155 54 221 0.9 1.7 0.00 0.00 0.00 55 1004.8
20260504025652 54 212 0.9 1.7 0.00 0.00 0.00 54 1004.7
20260504025148 54 221 0.9 1.7 0.00 0.00 0.00 55 1004.7
20260504024646 54 238 2.6 2.6 0.00 0.00 0.00 54 1004.6
20260504024142 54 188 1.7 1.7 0.00 0.00 0.00 54 1004.8
20260504023639 53 204 2.6 3.5 0.00 0.00 0.00 54 1004.8
20260504023136 53 185 1.7 2.6 0.00 0.00 0.00 54 1005.1
20260504022632 53 227 1.7 2.6 0.00 0.00 0.00 55 1004.8
20260504022128 53 237 2.6 3.5 0.00 0.00 0.00 56 1004.9
20260504021626 53 227 0.9 0.9 0.00 0.00 0.00 57 1005.0
20260504021122 53 204 0.9 0.9 0.00 0.00 0.00 56 1005.0
20260504020620 53 189 1.7 1.7 0.00 0.00 0.00 55 1004.9
20260504020115 53 191 1.7 2.6 0.00 0.00 0.00 56 1005.0
20260504015612 53 212 1.7 2.6 0.00 0.00 0.00 56 1005.1
20260504015109 53 205 2.6 2.6 0.00 0.00 0.00 56 1005.1
20260504014604 53 269 3.5 3.5 0.00 0.00 0.00 55 1004.9
20260504014101 53 271 2.6 3.5 0.00 0.00 0.00 56 1005.1
20260504013559 53 163 0.9 0.9 0.00 0.00 0.00 60 1005.2
20260504013056 53 235 2.6 3.5 0.00 0.00 0.00 57 1005.1
20260504012553 53 193 2.6 3.5 0.00 0.00 0.00 59 1004.9
20260504012051 53 247 2.6 2.6 0.00 0.00 0.00 60 1005.1
20260504011548 52 207 1.7 2.6 0.00 0.00 0.00 62 1005.3
20260504011044 52 210 0.9 0.9 0.00 0.00 0.00 65 1005.2
20260504010539 52 182 0.0 0.0 0.00 0.00 0.00 65 1005.2
20260504010036 51 186 0.9 0.9 0.00 0.00 0.00 67 1005.5
20260504005533 51 199 0.9 0.9 0.00 0.00 0.00 67 1005.4
20260504005030 52 198 0.0 0.0 0.00 0.00 0.00 66 1005.5
20260504004528 51 207 0.9 0.9 0.00 0.00 0.00 66 1005.4
20260504004025 51 200 0.0 0.0 0.00 0.00 0.00 67 1005.3
20260504003521 51 237 1.7 1.7 0.00 0.00 0.00 66 1005.2
20260504003018 51 177 0.0 0.9 0.00 0.00 0.00 67 1005.3
20260504002515 51 147 0.9 1.7 0.00 0.00 0.00 69 1005.3
20260504002012 51 185 0.0 0.0 0.00 0.00 0.00 70 1005.5
20260504001509 51 188 0.0 0.0 0.00 0.00 0.00 72 1005.7
20260504001006 50 193 1.7 1.7 0.00 0.00 0.00 72 1005.7
20260504000503 50 201 0.0 0.0 0.00 0.00 0.00 73 1005.9
20260504000000 50 190 0.0 0.9 0.00 0.00 0.00 74 1005.7
20260503235458 50 190 0.0 0.9 0.00 0.00 0.00 73 1005.6
20260503234955 50 168 0.9 0.9 0.00 0.00 0.00 73 1005.7
20260503234452 50 214 0.9 0.9 0.00 0.00 0.00 73 1005.6
20260503233950 51 197 0.9 0.9 0.00 0.00 0.00 72 1005.4
20260503233447 51 189 1.7 2.6 0.00 0.00 0.00 72 1005.5
20260503232943 51 228 0.9 1.7 0.00 0.00 0.00 71 1005.6
20260503232440 51 177 0.9 1.7 0.00 0.00 0.00 70 1005.8
20260503231938 51 224 1.7 2.6 0.00 0.00 0.00 70 1005.3
20260503231435 52 250 2.6 2.6 0.00 0.00 0.00 67 1005.5
20260503230931 52 256 4.3 6.1 0.00 0.00 0.00 65 1005.5
20260503230428 53 216 3.5 5.2 0.00 0.00 0.00 61 1005.5
20260503225926 53 177 4.3 6.1 0.00 0.00 0.00 58 1005.5
20260503225422 54 255 4.3 5.2 0.00 0.00 0.00 56 1005.3
20260503224918 53 287 2.6 3.5 0.00 0.00 0.00 57 1005.3
20260503224415 53 187 3.5 3.5 0.00 0.00 0.00 57 1005.2
20260503223913 53 187 5.2 7.0 0.00 0.00 0.00 57 1005.1
20260503223411 53 207 4.3 7.0 0.00 0.00 0.00 56 1004.9
20260503222910 53 210 4.3 5.2 0.00 0.00 0.00 55 1005.1
20260503222409 53 251 3.5 5.2 0.00 0.00 0.00 55 1004.8
20260503221907 54 211 2.6 2.6 0.00 0.00 0.00 55 1005.0
20260503221405 54 269 2.6 2.6 0.00 0.00 0.00 54 1005.0
20260503220901 54 178 7.8 9.6 0.00 0.00 0.00 52 1005.1
20260503220358 54 246 3.5 3.5 0.00 0.00 0.00 52 1005.0
20260503215855 55 192 5.2 7.0 0.00 0.00 0.00 50 1005.2
20260503215352 55 185 5.2 7.8 0.00 0.00 0.00 50 1004.9
20260503214849 55 253 3.5 5.2 0.00 0.00 0.00 50 1005.0
20260503214347 55 292 2.6 2.6 0.00 0.00 0.00 50 1004.8
20260503213844 56 163 2.6 2.6 0.00 0.00 0.00 50 1005.0
20260503213342 55 250 2.6 3.5 0.00 0.00 0.00 50 1005.2
20260503212838 55 262 2.6 3.5 0.00 0.00 0.00 50 1005.1
20260503212336 55 230 4.3 5.2 0.00 0.00 0.00 51 1004.9
20260503211833 55 264 3.5 3.5 0.00 0.00 0.00 50 1005.0
20260503211330 55 270 2.6 2.6 0.00 0.00 0.00 51 1005.2
20260503210826 55 217 3.5 5.2 0.00 0.00 0.00 49 1005.1
20260503210323 55 225 2.6 2.6 0.00 0.00 0.00 51 1005.1
20260503205818 55 184 3.5 6.1 0.00 0.00 0.00 48 1005.0
20260503205315 56 237 4.3 6.1 0.00 0.00 0.00 47 1005.2